Wind_Speed
42 42 42 42 42 42 42 43 44 44 45 45 45 45 45 45 44 43 43 42 43 43 44 44 42 40 38 37 37 36 35 34 36 39 43 47 49 50 52 54 55 56 57 57 56 56 56 56 56 55 54 55 54 52 51 50 50 50 49 49 47 45 44 43 44 45 42 38 36 35 33 33 34 34 34 34 34 35 36 37 38 38 39 40 40
41 42 42 42 43 43 43 44 45 47 48 48 48 49 49 49 48 48 47 46 45 45 46 47 48 47 46 44 42 41 40 37 36 35 37 41 45 48 50 52 54 55 57 58 57 57 57 56 56 55 55 56 55 54 53 52 51 51 50 50 48 46 44 44 45 46 44 39 37 36 35 35 35 35 35 34 34 36 37 37 38 39 39 40 40
42 43 43 43 43 44 44 45 45 46 47 48 48 48 49 50 50 50 50 49 49 49 49 49 50 51 51 49 47 46 45 43 41 39 38 38 40 43 47 50 52 54 56 58 58 57 57 57 57 56 56 57 56 55 54 53 52 52 52 51 50 48 46 45 46 47 45 41 38 37 36 36 36 36 36 35 35 36 37 37 38 38 39 39 39
44 44 43 43 42 42 43 43 44 44 44 45 45 46 48 49 50 51 51 51 50 50 50 51 51 51 52 53 52 50 48 46 44 42 41 41 40 41 43 46 49 52 54 56 58 58 58 57 57 57 57 57 56 56 55 54 53 53 53 52 51 49 48 47 46 47 47 44 40 39 38 38 38 38 37 37 36 36 37 38 38 38 38 37 38
44 44 44 44 43 42 41 41 42 42 43 43 43 43 44 46 48 49 49 49 49 48 48 49 50 51 52 53 54 53 51 49 47 44 43 43 43 43 43 44 46 49 52 55 57 58 59 58 57 56 57 57 57 56 56 55 54 54 53 52 52 51 50 49 47 48 49 46 43 41 40 40 40 40 39 39 38 37 38 38 37 37 37 36 37
40 41 42 43 43 43 42 42 41 41 41 42 42 43 43 43 45 46 46 47 47 47 47 46 46 47 48 50 52 54 54 53 50 48 45 44 43 44 44 45 45 46 48 52 55 58 59 59 58 57 57 58 57 57 56 55 55 55 54 53 53 53 52 50 49 50 51 49 45 43 42 42 42 41 40 40 40 39 39 38 37 37 37 37 37
39 40 40 41 43 43 43 43 42 42 41 42 43 44 44 44 44 45 45 45 45 46 47 47 46 46 46 47 48 51 53 54 53 51 49 46 45 44 45 46 45 45 46 48 52 56 58 58 58 58 57 58 58 57 57 56 56 56 55 54 54 54 54 53 52 52 53 52 49 46 45 44 44 44 43 42 43 42 41 39 38 38 38 38 38
42 42 43 44 45 46 46 46 45 45 45 45 45 45 46 46 47 47 47 47 47 47 47 48 49 49 49 49 48 48 50 52 52 52 52 50 47 46 45 46 47 47 46 47 49 53 55 57 58 58 57 57 57 58 57 57 57 57 56 55 56 56 56 56 55 54 55 55 53 50 48 47 47 47 46 45 45 44 42 41 41 40 40 40 40
44 44 45 46 46 47 49 50 50 50 50 50 50 50 51 52 52 52 52 52 51 51 50 51 51 52 53 53 53 52 52 53 54 54 53 53 52 49 47 47 47 48 49 49 49 50 53 55 56 57 57 56 57 57 58 58 58 58 57 57 58 58 58 58 57 57 57 58 57 55 53 52 51 50 49 47 46 45 44 43 43 43 43 43 43
44 45 46 47 48 49 50 51 52 53 54 54 54 54 55 55 56 56 55 55 54 54 54 53 53 54 55 55 56 56 55 56 57 57 57 57 56 55 53 51 50 50 51 52 52 51 52 53 55 56 57 57 57 57 57 58 59 60 60 60 60 60 60 60 59 59 60 60 60 59 57 56 54 53 51 49 48 48 47 47 46 46 46 46 45
45 46 47 48 50 51 52 53 53 54 54 55 55 56 56 56 56 56 56 55 55 55 55 55 55 55 56 56 57 58 58 57 58 58 59 60 60 59 58 56 54 53 53 53 54 54 54 54 54 56 57 58 58 58 58 58 59 59 60 61 61 62 62 62 62 62 62 63 63 62 61 59 58 56 54 54 53 52 51 50 49 49 49 48 48
47 48 49 50 52 53 54 54 55 55 55 55 55 56 56 56 57 57 57 57 56 56 55 55 56 56 57 58 58 58 59 59 58 59 59 60 60 61 62 61 60 58 57 56 56 55 55 55 55 56 57 57 58 60 61 61 62 62 62 63 63 63 64 64 64 64 64 64 65 65 65 63 61 58 57 57 56 55 55 54 53 52 51 50 51
50 51 52 53 54 55 55 56 56 57 57 57 57 57 56 56 56 56 57 58 59 59 57 56 55 56 57 59 60 60 60 59 59 59 59 60 61 61 62 63 63 62 61 60 59 58 57 57 57 57 57 57 58 60 61 62 64 65 66 66 67 67 67 67 67 67 67 67 68 68 68 66 64 62 59 58 58 59 59 59 57 56 54 52 53
53 54 54 55 56 57 57 57 58 58 58 58 58 58 58 57 56 55 55 56 57 59 59 58 57 56 57 59 61 62 62 61 61 60 59 60 61 63 64 64 64 64 64 63 63 62 61 60 59 59 59 59 59 59 60 62 64 67 69 70 70 70 71 70 70 71 71 72 72 71 70 68 66 64 62 60 61 63 64 63 61 59 56 55 56
55 56 57 57 58 58 59 59 59 59 59 59 59 59 59 58 58 57 57 57 57 57 58 58 58 58 58 58 60 63 63 62 62 63 62 61 60 62 64 65 65 65 65 65 65 64 64 64 63 62 61 62 61 60 61 63 65 67 69 70 70 70 71 72 72 73 74 74 73 72 70 69 68 67 66 64 65 66 66 64 63 61 60 59 60
57 59 59 60 60 60 60 60 60 61 61 60 60 60 60 60 60 60 60 60 60 60 60 59 59 59 58 58 60 62 63 63 63 63 64 64 62 61 63 65 66 67 66 66 65 64 64 64 65 64 64 64 64 63 63 64 66 68 69 68 68 68 69 69 70 72 73 74 73 72 71 70 70 69 68 67 67 68 68 67 66 64 63 62 62
60 61 61 61 62 62 62 63 63 64 64 64 64 64 64 65 64 64 65 65 65 65 65 64 63 61 61 60 60 61 62 63 63 62 63 65 64 63 62 63 65 67 67 67 65 65 63 62 63 63 64 65 65 65 65 66 68 69 69 69 69 70 70 70 70 71 73 74 75 74 73 72 71 71 70 70 70 71 71 69 68 66 64 63 63
61 63 63 64 65 66 67 68 68 69 70 71 71 71 71 71 71 70 70 71 70 70 71 71 69 67 66 64 63 63 63 62 63 63 62 62 63 63 63 63 64 65 66 66 65 65 63 62 62 61 61 62 64 64 65 66 68 69 69 69 70 71 70 71 72 73 74 75 76 77 76 74 73 73 73 72 73 74 72 69 68 66 64 64 64
63 65 66 67 69 70 71 72 74 75 76 76 77 78 78 78 78 77 77 77 76 75 76 76 76 74 73 71 68 67 67 64 63 64 64 62 61 60 61 63 65 66 65 65 65 64 63 63 63 62 60 60 62 62 62 64 66 68 68 69 71 71 70 70 73 75 75 76 77 78 78 77 76 75 75 75 75 74 72 70 69 67 65 64 64
65 67 69 71 73 74 76 77 78 79 80 80 81 81 81 81 81 81 81 81 81 80 80 80 80 79 77 76 74 72 71 69 66 65 65 65 63 61 59 61 64 66 66 65 65 65 64 63 63 63 61 60 62 62 61 61 62 64 66 69 71 70 69 71 73 74 75 75 76 77 78 78 76 75 76 76 76 75 73 72 71 69 66 63 64
68 71 73 75 77 79 80 80 81 81 81 81 81 81 82 82 83 83 83 83 83 83 82 81 82 82 80 78 77 76 74 73 70 67 66 67 66 64 61 61 62 64 65 66 66 66 65 63 62 62 61 59 60 61 62 61 61 62 65 68 69 68 68 70 72 73 74 74 74 75 76 77 77 76 77 77 77 76 75 74 73 70 66 64 65
72 74 76 78 79 80 80 80 80 80 81 81 82 82 82 82 83 84 84 84 84 84 83 82 82 82 80 78 77 76 75 74 72 70 68 67 68 67 65 62 61 61 63 66 67 67 66 64 63 62 61 59 58 59 60 60 61 62 64 66 67 66 66 68 70 73 74 74 74 75 76 77 79 79 79 79 79 78 77 75 73 69 65 65 66
75 77 78 79 79 79 79 79 80 81 81 81 82 82 82 82 83 84 86 87 87 86 84 83 83 82 80 77 74 72 71 71 71 70 68 68 69 69 67 64 62 61 62 65 67 67 66 65 63 62 62 59 57 57 58 58 59 61 62 64 66 66 65 66 69 72 74 75 76 76 77 78 80 81 82 82 81 79 77 74 70 67 65 66 68
77 78 78 78 78 79 80 79 79 79 79 79 81 82 83 85 87 89 92 93 93 91 88 86 85 84 81 78 74 70 67 66 66 66 67 67 68 69 68 66 63 62 62 64 66 66 65 64 63 62 62 60 57 55 56 56 57 57 58 61 63 64 65 66 68 70 73 76 77 77 78 79 80 82 83 83 81 77 73 70 67 66 66 68 70
77 77 78 79 79 78 78 77 76 77 78 80 82 84 86 90 93 94 95 94 92 90 87 85 84 83 82 80 76 72 68 66 64 63 62 63 65 68 68 67 64 62 62 63 63 64 65 64 62 62 62 61 57 54 54 54 54 54 55 57 61 64 65 66 67 68 71 74 76 77 77 78 80 82 82 80 76 72 68 67 67 67 69 71 71
77 78 78 77 75 75 75 76 77 79 80 82 84 87 90 92 92 88 84 81 79 78 78 78 79 79 79 78 76 73 71 68 65 62 60 60 61 64 67 66 63 61 62 62 61 61 63 64 63 63 62 60 57 53 52 52 51 51 52 54 59 63 64 65 66 67 68 70 72 75 77 77 78 80 79 76 72 68 67 68 68 69 70 71 70
77 75 74 73 73 74 76 77 78 79 81 83 87 88 87 83 78 73 70 69 68 68 69 70 71 72 72 72 72 71 70 68 66 63 60 59 58 60 63 65 62 59 60 60 59 59 60 62 63 62 61 59 56 53 51 51 51 51 51 52 55 58 60 61 63 64 64 66 69 72 74 75 75 76 75 74 71 69 69 69 69 70 70 70 68
72 71 71 72 74 75 75 77 78 80 83 86 85 80 73 67 65 63 62 61 61 61 61 62 63 64 65 65 66 67 66 65 64 63 61 60 58 57 59 62 61 57 57 58 58 56 56 58 60 62 61 59 56 53 51 51 51 50 50 50 51 53 55 57 59 60 61 63 67 71 73 74 74 73 72 71 70 70 70 70 69 69 69 68 67
69 70 71 72 72 73 75 78 81 84 85 80 72 65 60 58 58 57 56 55 55 56 56 56 55 54 55 57 58 61 62 61 61 61 60 60 59 57 56 58 59 56 54 54 55 54 54 56 58 61 62 60 56 53 51 51 50 50 49 48 48 50 52 54 55 57 59 63 67 70 72 73 71 69 69 69 70 71 70 69 68 68 67 66 64
69 69 70 70 72 75 79 82 84 82 76 66 59 55 53 52 51 51 51 50 49 49 50 50 49 48 48 49 50 52 55 56 56 58 58 58 58 57 56 56 57 55 52 51 52 53 53 55 57 59 61 61 56 52 49 50 50 49 48 47 48 49 50 51 52 53 56 61 65 68 71 71 70 68 67 68 69 69 68 67 66 65 65 64 61
67 68 70 72 76 80 83 83 79 70 61 55 52 52 51 49 47 46 46 44 43 43 43 44 43 43 44 45 45 46 48 50 52 54 55 56 56 56 55 55 56 54 50 49 51 52 52 53 55 56 59 59 56 51 48 49 49 49 48 47 48 48 49 50 50 50 54 58 62 65 67 68 68 67 66 65 65 64 63 62 62 62 62 60 58
66 70 72 75 78 81 80 75 66 56 51 49 48 48 47 46 44 41 40 39 38 38 38 38 38 38 39 41 42 43 44 46 48 51 53 54 54 55 54 55 55 53 50 48 50 51 51 52 54 54 55 56 55 50 47 48 49 49 48 47 47 48 49 49 50 51 53 57 60 62 64 64 63 62 61 58 57 56 56 57 59 59 58 57 55
68 71 73 75 77 75 69 61 53 47 44 44 43 43 42 42 41 40 38 37 35 34 33 33 33 35 36 37 39 41 41 42 44 47 49 50 51 52 53 53 53 51 48 48 50 50 49 51 52 52 52 53 51 47 46 46 47 47 48 47 46 48 50 50 50 51 52 53 54 56 57 57 56 55 53 52 51 51 53 54 55 55 54 53 52
67 69 71 72 70 64 56 50 45 42 40 40 39 38 38 39 39 39 38 37 35 32 29 27 27 30 33 34 35 37 37 38 40 41 43 44 45 46 47 48 49 47 44 45 48 49 49 49 50 49 49 48 46 43 43 43 43 45 47 47 47 48 51 51 51 50 49 48 48 48 49 49 49 49 49 49 49 51 52 53 52 52 51 50 49
65 66 67 66 60 53 48 44 40 39 38 37 36 35 35 36 37 38 37 37 36 33 29 25 23 24 28 31 32 32 32 33 34 36 38 38 38 38 40 42 43 42 41 43 46 47 48 48 48 48 47 45 42 40 39 40 40 42 45 48 47 47 49 50 49 48 45 43 42 43 45 45 46 46 46 47 48 49 50 51 51 50 49 48 46
61 63 64 60 52 46 43 39 37 37 37 36 35 34 34 35 36 36 36 36 36 35 32 28 24 21 22 26 28 26 25 26 26 28 32 33 31 32 34 38 39 38 38 42 45 45 45 47 47 46 45 42 39 37 36 36 38 40 44 46 47 46 45 45 44 42 39 37 37 40 42 43 44 44 44 45 46 48 48 49 49 49 48 46 44
58 60 61 57 48 42 39 37 35 36 36 35 35 34 34 34 34 34 34 34 34 34 32 30 27 22 18 20 22 21 20 19 19 21 25 28 28 27 30 34 35 33 34 37 40 41 44 46 46 44 43 40 37 34 33 32 34 37 40 43 45 43 39 36 35 34 33 33 35 37 39 41 42 43 44 45 46 48 48 48 47 46 45 44 42
55 57 59 56 49 44 41 37 36 36 36 36 35 34 34 33 33 33 32 32 33 33 33 31 28 23 18 15 16 16 15 15 16 17 19 22 23 24 26 29 31 30 30 32 35 38 42 45 45 43 41 38 35 32 30 28 29 31 35 38 40 38 33 29 29 29 30 32 33 35 37 38 39 40 42 44 46 47 47 47 46 45 44 42 41
52 53 56 55 49 44 41 38 36 34 34 34 34 34 33 32 33 33 32 32 31 32 32 30 27 23 19 14 12 14 15 15 16 17 17 16 18 22 24 26 27 28 28 29 31 35 40 43 43 42 39 36 33 30 27 25 25 27 29 33 34 32 30 29 29 29 30 31 31 32 33 35 36 39 41 43 44 44 44 44 43 42 40 39 38
49 51 54 54 50 44 40 37 34 32 32 32 32 32 32 32 32 32 31 31 31 31 30 29 26 22 17 13 11 13 15 16 17 17 16 15 18 21 22 21 22 25 27 28 29 32 37 40 41 40 37 34 31 28 24 23 22 22 24 26 28 28 28 28 28 28 28 28 29 30 31 33 35 38 40 41 41 41 41 40 39 38 38 38 40
47 48 50 52 51 46 41 37 34 31 30 30 31 31 31 30 30 30 30 29 29 29 29 28 25 20 16 12 10 12 14 14 14 15 15 15 16 18 17 16 18 23 26 27 28 30 34 37 39 38 36 32 30 27 24 22 20 19 19 21 24 26 27 27 26 26 27 28 28 29 31 33 34 35 37 38 38 38 38 38 37 37 38 39 40
46 47 48 49 51 49 43 38 34 31 29 29 29 29 29 29 29 29 29 28 27 27 27 26 24 20 15 12 11 13 14 13 12 13 14 14 14 16 17 17 18 22 26 27 27 28 30 33 34 35 33 30 28 26 23 20 17 15 16 20 23 26 27 27 26 26 26 27 28 29 31 33 33 34 34 36 36 36 37 37 37 38 39 39 38
44 45 45 46 48 48 45 40 36 33 30 29 28 29 29 29 28 29 28 26 25 25 24 24 23 21 17 13 13 14 14 13 11 12 12 13 14 17 21 22 20 20 23 25 24 23 24 26 28 28 28 27 27 25 22 17 15 14 16 20 24 27 28 27 27 26 26 27 29 30 32 33 34 34 35 36 36 36 36 36 37 37 37 36 35
42 42 43 43 45 46 45 42 39 36 34 32 30 29 29 28 28 28 27 26 24 23 22 21 21 21 19 16 15 14 14 13 11 10 10 12 13 16 20 23 22 19 18 19 18 17 18 21 23 24 25 25 25 23 20 18 17 15 16 20 25 28 27 26 26 26 27 28 30 32 33 33 34 35 35 35 35 35 35 35 35 34 34 33 33
39 40 40 41 42 43 44 43 41 39 37 35 33 31 30 29 29 28 27 26 25 24 22 20 18 18 18 18 17 16 15 13 11 9 9 10 12 13 14 18 19 18 16 15 15 15 17 20 21 22 23 24 23 21 19 20 18 16 17 21 25 26 25 25 24 25 27 29 31 33 34 34 34 34 34 34 34 33 33 32 32 32 32 32 32
37 38 39 39 40 41 42 43 43 41 40 38 37 35 33 32 30 29 28 27 26 24 22 20 18 16 15 15 16 16 16 14 12 10 9 9 10 11 11 12 13 14 14 14 16 17 18 20 20 21 21 21 19 19 20 21 19 17 19 23 25 26 25 23 23 25 27 29 30 31 32 32 32 32 32 32 32 31 31 30 30 30 31 31 31
34 35 37 38 38 39 40 41 42 42 42 41 40 38 37 35 34 32 31 29 27 25 23 21 18 16 14 13 13 13 13 13 11 10 9 9 10 11 12 12 12 13 14 15 17 18 19 20 19 19 19 18 18 21 23 22 20 19 21 23 26 27 26 24 23 25 26 28 29 29 29 29 30 30 30 30 30 30 30 30 30 30 30 29 28
31 32 34 35 36 36 37 38 40 41 42 41 41 39 39 37 36 35 33 31 30 27 25 23 21 18 16 14 13 11 10 9 8 8 8 9 9 11 12 12 12 13 14 15 17 18 18 17 16 17 17 19 21 23 23 22 21 20 21 23 25 27 27 27 27 27 28 28 28 28 28 28 28 28 29 29 29 29 29 29 29 28 28 27 26
29 30 31 33 34 35 35 36 37 38 40 40 40 40 38 37 36 35 34 33 31 29 28 25 23 21 19 17 15 12 9 7 4 4 6 7 9 10 11 10 11 12 13 14 14 14 14 14 15 17 19 22 24 25 24 23 21 21 21 22 24 27 28 28 28 29 29 29 29 29 28 28 28 28 28 29 29 28 28 28 27 26 26 25 24
28 28 29 31 32 33 34 34 35 36 37 38 39 39 38 37 36 35 34 32 31 29 28 26 24 21 19 17 15 13 10 8 5 4 5 5 6 7 8 9 10 11 12 12 12 13 15 17 19 21 22 24 25 25 23 20 18 17 18 19 22 24 26 27 26 27 27 27 27 26 26 27 27 27 28 27 27 26 25 25 24 24 23 23 23
26 27 27 28 30 31 32 32 33 34 35 35 36 36 37 36 35 34 33 32 30 29 27 25 23 21 18 16 14 12 11 9 8 7 6 5 4 3 3 4 5 7 8 10 11 13 15 16 18 19 20 21 20 18 16 14 13 14 15 17 19 21 23 24 24 24 24 24 24 25 25 25 26 26 25 24 24 23 23 22 22 22 21 22 23
Wind_Direction
303 302 301 300 299 299 298 298 298 298 298 297 297 296 296 295 294 293 292 290 288 285 283 282 280 279 280 281 282 281 279 277 275 274 272 269 266 264 260 257 255 252 249 246 244 244 245 246 246 245 245 245 244 244 245 246 247 249 250 251 252 252 254 255 257 259 261 262 264 267 269 270 271 271 271 271 270 269 269 267 265 264 263 262 261
301 301 301 301 301 300 300 299 298 298 298 298 297 296 295 295 294 294 293 292 291 289 287 285 282 280 278 277 278 278 278 277 276 275 273 271 270 267 263 260 257 255 252 249 246 244 244 245 244 244 243 243 242 243 244 244 245 247 248 250 251 251 252 254 255 257 259 260 261 263 264 266 268 270 271 271 270 269 268 267 267 266 265 264 263
300 300 301 300 300 300 299 299 298 296 296 296 296 295 294 293 293 293 293 292 291 289 288 287 284 282 280 278 277 276 276 275 274 272 271 270 270 269 267 263 259 256 253 252 249 247 246 245 244 243 242 242 241 241 242 243 244 245 246 248 249 250 251 252 253 255 256 257 257 258 260 263 265 266 268 269 268 267 267 267 267 267 267 267 267
298 299 300 300 300 299 298 298 297 296 295 294 294 294 294 294 292 292 291 291 290 288 286 285 283 282 280 279 278 277 276 275 273 270 268 267 267 267 267 266 263 258 255 252 251 250 248 247 245 244 243 242 241 241 241 242 242 243 245 246 248 249 249 250 251 253 254 254 254 255 257 259 261 263 264 265 266 266 266 266 267 268 268 269 269
296 297 297 298 298 298 297 297 297 296 296 294 293 293 293 293 293 292 291 289 288 287 284 282 280 278 277 276 275 275 275 275 273 270 267 266 264 263 263 264 264 261 258 254 252 251 250 249 247 245 244 242 241 240 240 241 242 243 244 246 247 248 249 249 249 251 252 251 251 252 254 257 260 261 262 263 264 264 265 266 268 268 269 270 271
295 295 294 294 294 294 294 294 294 294 295 295 295 294 293 293 293 292 291 289 288 286 285 282 280 276 274 272 271 270 270 272 272 272 269 266 264 261 260 260 260 261 261 258 254 252 251 251 249 247 245 243 242 241 240 240 241 242 243 245 246 248 249 249 248 249 250 249 249 249 251 254 258 260 261 261 262 262 264 266 267 268 269 270 270
298 297 296 295 294 293 293 292 292 291 291 292 292 293 293 293 292 292 291 289 288 286 285 285 284 281 277 274 271 270 269 268 268 269 269 268 266 264 260 258 257 257 259 259 257 254 252 251 250 248 247 245 244 243 242 241 241 242 243 244 246 247 248 248 248 248 248 248 247 247 248 251 254 257 258 259 260 261 262 265 267 269 270 270 269
305 304 302 301 299 298 297 296 294 293 292 291 290 290 290 290 290 290 290 290 288 286 285 285 285 285 283 280 277 274 272 270 269 267 266 266 266 266 264 261 258 255 255 256 256 255 254 253 250 249 248 247 246 245 244 243 242 242 242 243 245 246 247 247 247 246 247 247 246 245 246 248 250 253 255 256 259 261 264 267 268 268 269 269 268
308 308 307 306 305 303 302 301 299 298 296 294 293 292 291 291 290 289 288 288 287 287 285 284 284 284 284 284 282 279 276 274 273 272 269 266 263 262 263 263 261 257 255 254 254 253 254 254 253 252 250 248 248 247 245 244 243 243 242 242 243 245 246 247 247 247 246 247 247 245 244 245 248 250 252 254 257 261 263 264 264 265 265 267 267
310 309 309 308 308 307 306 304 303 302 300 298 297 295 293 292 291 289 288 287 287 286 284 283 281 281 281 282 282 282 279 277 275 275 275 272 269 264 261 260 260 259 256 254 253 252 252 253 253 253 252 250 248 247 246 245 244 243 242 241 242 243 244 245 247 247 248 249 248 247 245 244 246 249 251 252 254 257 259 260 261 262 262 264 266
312 311 310 309 308 307 306 305 304 303 302 301 300 298 297 295 293 290 289 287 287 286 284 283 281 279 277 276 277 278 279 279 277 276 276 276 274 271 266 261 259 258 257 255 254 252 251 251 251 252 252 251 249 248 246 246 245 244 243 242 242 242 242 244 245 246 248 249 250 249 247 245 245 248 250 251 251 253 255 256 258 259 260 262 263
311 311 311 310 309 308 307 306 305 304 304 303 302 301 299 298 296 294 292 289 287 286 285 283 282 280 277 275 273 272 274 275 276 276 276 277 276 274 271 267 263 259 257 256 255 253 252 251 250 250 250 251 251 250 248 247 247 246 245 244 243 242 242 243 244 245 246 247 248 249 248 246 245 246 248 250 251 252 253 253 255 257 258 260 261
310 310 310 310 309 308 308 307 306 305 304 303 302 301 300 299 297 296 294 292 290 287 285 283 281 280 278 276 274 272 270 270 271 272 273 274 275 275 274 271 268 264 260 257 256 254 253 252 250 249 249 249 249 250 250 249 248 246 244 243 243 243 242 242 242 244 245 246 246 247 247 248 247 247 247 249 251 251 250 251 252 253 255 257 259
310 311 310 310 309 309 308 306 305 303 302 301 301 300 299 298 296 295 293 291 290 288 286 284 281 279 277 275 275 273 271 269 268 269 268 268 270 272 273 272 271 268 265 262 259 257 255 254 252 250 248 248 247 248 249 249 248 247 245 244 245 245 243 242 240 241 242 243 245 246 246 247 248 247 247 248 250 250 249 250 251 252 253 255 257
310 310 310 309 309 308 308 306 304 303 301 300 299 298 297 296 295 293 292 290 288 287 286 284 282 279 276 274 272 272 271 269 268 267 268 267 266 266 268 270 270 269 268 266 264 262 260 258 256 253 250 248 247 247 247 248 249 248 247 246 247 246 245 244 242 241 241 242 243 245 246 246 247 247 247 247 248 249 249 250 250 251 251 253 254
309 309 308 308 308 307 306 305 303 302 301 299 298 297 295 294 293 292 291 289 288 287 286 285 283 281 278 274 271 269 268 268 267 266 266 267 267 265 264 265 266 267 268 267 266 264 263 262 261 258 255 252 249 247 247 247 247 248 248 248 248 247 246 246 245 243 242 242 242 243 244 244 245 245 246 246 247 249 249 249 250 250 250 252 253
308 307 307 307 306 305 304 303 301 300 299 298 296 295 294 293 291 290 290 289 288 287 286 285 284 283 281 278 274 270 267 266 266 265 264 265 267 267 265 263 262 263 264 266 266 265 263 262 262 261 259 256 253 251 250 248 247 247 248 249 249 248 248 248 248 246 245 243 242 241 241 242 242 243 243 244 245 247 248 249 250 252 252 253 254
306 306 306 305 305 304 303 302 301 300 299 298 296 295 294 292 291 290 289 288 287 287 286 285 284 284 282 281 278 275 270 265 264 265 264 264 266 268 267 265 262 261 260 261 262 263 263 261 261 260 259 259 257 255 253 252 251 250 249 250 250 251 251 251 249 248 246 244 242 240 240 240 240 241 242 242 243 245 247 249 251 252 252 253 253
305 304 304 304 303 303 302 301 300 300 299 298 297 296 294 293 292 290 289 287 286 285 284 284 283 282 282 281 280 279 276 270 265 264 263 263 264 266 268 267 264 262 260 259 258 259 261 261 260 259 259 259 258 257 256 255 254 253 252 251 251 252 254 252 249 247 246 245 243 241 239 239 239 240 241 242 243 245 247 248 249 250 251 251 252
304 303 303 303 302 302 302 301 300 300 299 298 297 296 294 293 292 291 289 288 286 285 283 282 281 280 280 279 279 278 277 275 270 266 264 263 262 264 267 268 266 263 261 260 258 257 257 258 259 259 259 259 260 259 258 257 256 254 252 252 252 253 254 252 249 248 246 245 243 241 240 239 239 239 241 242 244 245 245 246 247 248 249 250 251
303 303 302 302 302 302 301 301 300 299 299 298 296 295 294 294 292 291 290 288 287 285 284 282 280 279 278 277 276 276 275 275 273 269 265 263 261 262 263 265 266 265 263 261 258 256 255 256 257 258 258 259 260 260 260 259 258 256 254 252 253 253 252 250 250 249 247 245 243 241 239 239 238 239 240 241 243 244 244 245 246 248 248 249 250
302 302 302 302 302 302 301 300 300 299 298 297 296 295 294 293 292 291 290 289 287 286 285 283 281 279 277 275 274 273 273 272 272 270 266 263 261 260 260 262 264 266 265 262 258 255 254 254 255 256 257 257 258 259 260 259 259 258 255 253 252 252 251 250 250 249 247 245 244 242 240 238 238 238 239 240 241 242 243 243 245 247 248 249 250
303 303 303 303 302 301 301 300 299 298 297 296 295 294 294 293 292 291 290 289 288 286 285 283 282 280 278 276 273 272 271 270 269 268 266 263 261 259 259 259 260 262 264 263 260 257 254 252 252 254 255 256 256 257 258 259 258 258 256 253 251 251 251 250 249 249 248 247 245 244 241 239 238 238 238 239 240 241 242 243 244 246 247 248 249
304 304 304 303 302 301 300 299 299 298 297 296 296 295 295 294 293 293 292 291 289 287 285 283 281 279 277 276 274 272 270 268 267 266 264 262 260 258 257 257 257 258 261 262 261 260 257 254 252 252 253 254 254 255 256 257 258 258 257 255 252 251 251 250 250 250 250 249 247 246 243 241 239 238 238 239 239 240 241 242 243 244 245 246 247
305 305 304 303 303 302 301 300 299 299 298 297 297 296 295 294 294 293 292 291 289 288 286 283 281 278 276 275 273 272 270 268 267 265 264 262 260 258 256 255 254 256 258 259 260 260 260 257 255 252 252 252 253 253 254 255 256 257 257 256 254 251 250 251 251 251 251 251 250 247 244 241 239 238 238 238 237 238 239 240 241 241 242 244 245
306 305 305 304 303 302 302 302 301 300 299 297 296 296 296 296 295 294 292 291 289 287 286 283 281 278 276 274 272 270 269 268 266 265 264 262 260 258 256 254 251 252 255 256 257 258 259 258 257 254 252 252 253 253 254 255 255 255 255 256 255 252 250 251 252 251 252 252 251 248 244 241 239 237 236 235 234 234 235 237 239 240 241 242 244
307 306 305 305 305 304 304 302 301 300 299 298 298 298 298 297 295 294 293 293 291 290 288 285 282 279 276 274 271 268 267 266 265 264 263 262 261 259 258 255 251 250 252 253 253 255 257 258 258 256 254 254 253 252 253 253 254 253 253 254 255 254 252 251 252 252 252 251 249 247 244 241 238 237 235 234 233 233 233 235 237 239 240 241 243
308 308 308 307 306 305 303 302 302 301 301 301 301 301 300 298 297 296 296 295 294 293 291 288 284 281 277 274 271 268 265 263 262 262 261 260 259 259 258 257 253 249 250 251 251 252 254 256 257 256 255 254 253 251 250 252 253 253 253 253 254 255 254 252 251 251 250 248 246 245 243 241 238 236 235 234 233 232 232 234 235 237 239 241 243
310 310 309 307 306 306 305 305 305 305 304 304 303 303 302 301 300 298 298 298 297 295 294 292 289 284 279 274 271 268 265 262 260 258 257 257 257 257 257 258 255 251 248 249 250 249 249 251 254 255 254 254 253 251 249 251 253 253 253 252 251 253 254 253 251 250 247 245 244 243 242 241 238 235 234 234 233 233 232 233 234 236 238 241 244
311 310 310 310 310 310 309 308 307 306 306 306 305 305 304 303 302 301 301 300 299 297 295 294 293 290 284 278 273 269 265 262 259 257 255 253 253 253 254 255 256 253 248 247 248 247 245 247 250 252 253 254 253 251 249 250 252 253 252 251 249 250 253 255 253 250 246 245 245 245 244 241 238 235 233 233 232 232 231 232 234 236 240 243 245
314 315 315 315 314 312 310 309 308 308 307 308 308 307 306 305 305 305 305 303 301 298 294 291 290 289 285 281 276 270 265 261 258 255 253 250 250 250 251 252 254 253 248 246 247 245 243 245 247 250 251 253 253 252 249 249 251 251 250 249 248 248 251 254 253 249 244 243 244 244 243 241 238 235 233 232 232 232 232 234 236 239 242 243 243
319 319 318 316 314 312 310 309 309 309 310 311 310 308 307 308 309 310 310 309 306 302 298 293 288 285 283 280 278 273 267 261 256 253 251 249 247 247 247 248 251 251 248 246 246 244 242 242 245 247 249 250 252 252 250 249 251 251 249 247 246 247 248 250 251 248 244 242 242 241 241 239 237 234 233 233 233 234 235 237 239 241 241 241 239
322 320 318 316 314 312 310 310 311 312 313 313 312 311 312 314 314 314 314 313 312 310 306 300 292 285 280 277 276 274 270 264 259 254 252 249 247 246 245 245 247 248 247 245 244 242 239 240 243 246 247 248 250 251 251 251 252 252 249 245 243 244 246 247 248 247 245 243 241 240 240 239 237 236 236 235 235 235 236 237 238 239 238 236 235
321 320 319 318 316 314 313 313 314 316 318 316 314 314 316 317 317 318 317 317 317 316 314 309 298 287 280 276 274 273 270 266 261 256 253 251 249 247 246 246 246 245 243 242 243 241 238 238 241 243 245 247 249 250 250 251 253 253 249 244 241 241 242 244 246 246 246 243 240 238 237 237 236 235 235 235 233 233 233 234 235 235 233 232 233
322 322 323 322 320 317 316 316 318 321 321 319 317 316 318 320 321 321 322 322 322 322 322 320 310 294 283 278 276 274 272 269 264 259 255 251 248 247 246 246 246 244 240 239 240 239 237 237 239 241 243 246 247 248 250 251 253 252 249 244 240 239 241 243 244 246 246 243 238 234 233 232 232 232 232 233 232 232 233 233 232 231 231 232 234
325 327 329 328 325 321 320 320 322 324 323 321 321 321 322 324 324 324 325 326 326 326 326 326 321 309 294 284 279 277 274 270 267 263 258 252 247 246 246 245 244 242 238 237 238 237 236 236 238 240 242 245 245 246 249 251 253 252 249 245 241 239 240 243 245 246 246 242 237 233 232 231 231 230 229 229 230 231 231 230 230 230 231 232 232
329 332 335 335 331 328 326 324 325 325 325 325 325 325 326 326 326 325 327 328 328 328 328 328 326 321 307 290 281 278 274 269 267 266 261 255 248 246 246 245 242 238 236 236 237 236 235 236 237 238 241 244 244 244 247 251 255 254 251 246 242 240 242 244 246 246 243 239 235 232 231 230 229 228 227 226 225 225 225 226 227 228 229 229 228
333 338 341 341 338 335 333 330 328 327 327 328 328 328 329 329 328 328 330 332 332 332 332 331 328 324 316 300 283 274 268 263 258 257 259 256 249 245 244 242 237 234 235 236 235 234 235 236 237 237 239 242 243 244 246 252 257 256 250 245 242 240 240 239 237 234 233 231 230 230 229 229 228 226 224 223 223 223 224 225 226 226 225 224 224
337 342 346 346 344 341 336 333 329 327 327 328 328 329 330 331 331 332 334 336 337 335 334 333 329 323 320 312 285 264 256 251 247 247 249 250 246 243 241 237 231 230 234 236 233 232 234 236 236 237 238 239 240 242 245 250 255 253 247 242 238 235 235 233 229 226 224 224 225 226 227 227 225 223 221 221 222 223 224 225 224 223 223 223 226
340 345 349 351 350 346 341 337 333 329 328 329 330 331 333 334 333 333 335 338 339 339 338 335 329 323 320 314 288 264 255 248 245 245 245 244 243 241 237 231 227 228 232 234 233 233 234 234 235 237 238 237 238 239 241 245 248 247 242 237 231 228 228 229 228 224 221 221 222 223 222 221 221 220 220 220 221 221 221 221 220 220 221 225 230
343 348 351 354 354 352 349 344 340 335 332 331 332 334 335 335 334 334 335 338 341 342 341 337 332 324 318 310 288 266 257 253 252 249 244 241 241 235 223 215 222 231 234 235 236 236 235 234 235 237 237 237 236 236 237 241 244 242 238 233 227 222 221 222 222 220 217 217 218 218 217 217 219 220 220 219 218 217 216 216 217 219 224 229 234
344 349 353 356 357 357 355 351 347 343 338 335 334 335 336 337 337 335 335 337 340 342 342 340 335 328 319 304 285 272 268 265 259 251 241 235 231 217 200 197 214 229 233 235 237 237 236 236 237 238 238 238 236 236 240 244 243 239 235 229 220 214 214 215 216 214 213 213 214 214 213 215 216 217 216 216 215 214 215 216 219 224 228 233 237
344 349 354 358 360 0 359 357 355 352 348 344 341 339 339 339 338 336 335 336 337 338 339 340 339 334 324 307 292 288 288 284 273 260 248 238 227 209 197 199 211 224 231 234 235 234 235 237 238 238 239 238 238 239 240 236 228 228 231 224 214 209 209 211 211 209 207 207 209 210 211 212 213 213 213 213 214 215 217 220 224 228 231 234 237
344 349 353 358 2 4 4 3 2 1 360 357 352 348 344 342 340 339 338 336 335 334 335 337 339 338 333 324 313 309 309 306 297 285 270 258 245 225 209 207 215 224 229 230 228 226 230 234 236 235 235 236 238 239 231 215 207 216 224 219 212 208 206 207 208 205 203 203 205 207 207 209 211 212 213 214 216 218 221 224 227 229 232 234 236
344 348 353 358 3 5 7 8 9 8 8 6 4 360 355 351 347 344 342 339 337 335 334 334 335 336 335 333 328 324 322 319 313 303 287 274 268 256 237 227 228 232 231 225 220 220 225 230 232 232 232 233 234 230 216 200 199 211 218 214 209 206 205 205 205 203 200 201 204 207 207 208 209 211 214 216 218 221 223 225 227 229 231 233 234
343 347 352 358 3 6 8 11 13 14 14 13 11 9 7 3 358 354 350 346 343 339 336 334 332 331 331 330 328 326 325 324 319 308 291 277 270 266 260 249 244 241 234 224 220 222 225 228 230 230 230 229 224 214 201 194 196 208 215 210 204 201 201 203 203 201 199 200 203 207 209 209 210 212 215 217 219 220 222 224 225 227 229 230 231
343 347 351 356 1 5 9 12 14 16 17 16 15 13 12 10 8 5 1 356 352 347 343 339 335 331 328 325 323 323 322 320 315 304 287 272 262 255 250 244 239 236 230 224 222 224 225 227 227 225 223 217 207 197 193 192 196 206 213 211 204 200 198 197 197 198 198 199 202 207 210 211 211 212 214 216 218 220 221 223 225 226 227 228 230
344 348 351 355 360 4 8 12 14 16 17 17 16 15 14 11 10 9 8 6 2 358 353 349 346 343 338 332 327 324 322 319 314 302 283 267 255 248 242 235 228 223 219 217 219 222 223 222 218 212 206 199 193 190 190 192 197 206 211 210 206 201 196 193 192 193 194 197 200 203 206 208 210 211 213 215 217 219 220 222 223 224 226 229 232
344 348 352 355 358 2 7 11 14 15 16 16 15 15 14 13 11 10 9 9 8 5 1 358 355 355 354 349 341 335 331 327 319 293 273 262 253 249 244 236 223 213 208 207 209 210 207 203 198 193 190 188 186 187 188 193 199 207 210 209 205 201 196 193 191 190 192 195 198 200 202 204 207 209 212 214 216 217 219 220 222 224 227 232 236
343 347 351 354 357 0 5 10 13 14 16 15 14 14 13 13 12 11 10 10 10 9 7 4 1 0 1 0 357 351 344 338 329 309 290 280 269 259 251 241 229 218 209 203 198 192 188 187 186 185 184 184 184 185 188 193 200 206 208 206 205 201 196 191 188 188 190 193 195 198 201 204 207 210 212 214 215 217 219 221 224 227 231 237 242
341 345 349 352 355 358 2 7 11 14 15 15 14 13 12 12 11 11 11 11 11 12 12 11 10 8 6 7 7 4 359 353 348 343 340 338 331 311 278 250 234 221 209 201 193 186 181 180 179 178 179 179 179 181 186 190 195 199 199 198 198 196 191 185 182 184 187 191 193 197 202 205 207 210 212 214 216 219 221 224 228 233 237 243 248
Height
3017 3016 3015 3014 3013 3013 3012 3011 3011 3010 3009 3008 3008 3007 3006 3006 3005 3004 3003 3002 3002 3002 3001 3000 2999 2999 2999 2999 2998 2997 2996 2996 2995 2995 2996 2996 2996 2996 2996 2996 2996 2997 2997 2998 2999 3001 3002 3004 3006 3009 3011 3012 3014 3016 3018 3020 3022 3024 3026 3027 3028 3030 3030 3030 3030 3029 3030 3033 3033 3033 3035 3035 3035 3036 3037 3038 3039 3039 3039 3039 3039 3039 3040 3041 3041
3014 3013 3011 3010 3008 3007 3006 3005 3005 3004 3003 3002 3002 3001 3000 3000 2999 2998 2997 2996 2995 2995 2995 2995 2994 2993 2994 2994 2993 2993 2992 2992 2991 2990 2990 2990 2990 2990 2990 2990 2991 2992 2992 2993 2994 2994 2995 2997 2999 3002 3003 3004 3007 3009 3011 3013 3015 3017 3019 3021 3023 3025 3026 3026 3026 3025 3025 3028 3029 3029 3030 3030 3030 3032 3033 3034 3035 3035 3035 3035 3036 3036 3036 3036 3037
3010 3009 3008 3006 3004 3003 3001 3000 3000 2999 2998 2997 2997 2996 2994 2993 2992 2991 2990 2989 2989 2989 2989 2989 2988 2987 2987 2987 2987 2987 2987 2987 2986 2985 2985 2984 2984 2984 2983 2983 2984 2985 2986 2987 2988 2989 2989 2991 2992 2994 2996 2997 2999 3001 3003 3006 3008 3010 3012 3015 3017 3019 3021 3022 3021 3020 3020 3022 3024 3024 3025 3026 3026 3027 3028 3029 3030 3031 3031 3031 3031 3032 3032 3032 3033
3004 3003 3002 3001 2999 2998 2996 2995 2994 2993 2993 2992 2992 2990 2989 2986 2985 2983 2983 2982 2983 2983 2983 2983 2983 2982 2981 2981 2981 2981 2981 2981 2980 2980 2979 2978 2978 2978 2977 2977 2977 2978 2979 2980 2982 2983 2983 2984 2986 2988 2988 2990 2992 2994 2996 2998 3000 3003 3005 3008 3011 3013 3015 3016 3016 3015 3014 3016 3018 3019 3020 3021 3021 3022 3023 3024 3025 3026 3026 3027 3027 3027 3028 3028 3029
2999 2997 2996 2994 2993 2992 2990 2989 2988 2986 2986 2985 2985 2985 2983 2980 2977 2976 2976 2977 2977 2977 2977 2977 2977 2977 2976 2975 2975 2974 2974 2974 2974 2974 2973 2972 2972 2971 2971 2971 2971 2971 2972 2973 2975 2975 2976 2978 2980 2981 2981 2983 2985 2986 2988 2991 2993 2996 2999 3002 3005 3007 3009 3011 3012 3010 3008 3009 3012 3013 3014 3015 3015 3017 3018 3019 3020 3021 3021 3022 3022 3023 3023 3024 3024
2993 2991 2990 2989 2988 2986 2985 2983 2982 2981 2980 2978 2977 2976 2975 2973 2972 2970 2970 2970 2970 2970 2970 2970 2970 2970 2970 2969 2968 2968 2968 2967 2967 2966 2966 2966 2965 2965 2964 2964 2964 2965 2966 2967 2967 2968 2969 2971 2973 2973 2974 2976 2978 2980 2982 2984 2986 2988 2992 2995 2998 3000 3002 3004 3006 3004 3003 3003 3005 3006 3008 3009 3010 3011 3013 3015 3015 3016 3016 3017 3018 3018 3019 3019 3019
2987 2986 2984 2983 2982 2981 2979 2977 2976 2975 2974 2973 2971 2969 2967 2966 2966 2965 2965 2964 2964 2964 2964 2964 2963 2963 2963 2962 2961 2961 2960 2960 2960 2959 2959 2959 2959 2958 2958 2957 2957 2958 2959 2960 2961 2961 2962 2964 2965 2966 2967 2969 2972 2973 2975 2977 2979 2981 2985 2988 2991 2993 2995 2997 2999 2998 2997 2997 2998 3000 3002 3003 3004 3005 3008 3009 3009 3010 3012 3012 3013 3014 3014 3014 3015
2979 2978 2977 2976 2975 2973 2971 2970 2968 2967 2967 2966 2965 2964 2962 2961 2960 2959 2959 2958 2958 2958 2957 2957 2957 2956 2956 2955 2955 2954 2953 2952 2952 2952 2951 2951 2951 2951 2951 2950 2950 2951 2951 2952 2953 2955 2956 2957 2957 2958 2960 2963 2965 2966 2968 2970 2972 2974 2978 2980 2982 2985 2987 2989 2991 2992 2991 2991 2991 2993 2995 2997 2998 2998 3001 3002 3003 3005 3008 3009 3008 3009 3009 3010 3010
2973 2972 2971 2970 2968 2966 2964 2961 2959 2958 2958 2958 2957 2957 2956 2954 2953 2953 2952 2951 2950 2950 2950 2949 2949 2949 2949 2948 2947 2947 2947 2946 2945 2944 2944 2943 2943 2943 2943 2943 2943 2943 2944 2945 2946 2948 2949 2950 2951 2952 2953 2955 2957 2958 2960 2962 2964 2966 2970 2972 2974 2976 2979 2981 2983 2984 2985 2984 2984 2986 2987 2989 2991 2992 2993 2996 2999 3001 3003 3003 3003 3004 3004 3004 3004
2968 2967 2965 2963 2961 2958 2956 2954 2952 2950 2949 2949 2948 2947 2947 2947 2946 2945 2945 2944 2943 2942 2941 2941 2940 2940 2940 2940 2940 2939 2939 2939 2938 2937 2936 2935 2934 2934 2934 2934 2935 2935 2936 2937 2939 2941 2942 2943 2944 2945 2946 2947 2949 2950 2952 2953 2955 2958 2961 2963 2965 2968 2970 2972 2974 2977 2978 2978 2978 2979 2980 2982 2984 2986 2988 2991 2993 2995 2996 2997 2998 2999 2999 2999 2999
2962 2960 2958 2955 2953 2950 2948 2946 2945 2944 2943 2941 2940 2939 2938 2938 2937 2937 2937 2936 2936 2934 2933 2932 2932 2931 2930 2930 2931 2931 2931 2931 2930 2929 2928 2926 2925 2924 2924 2925 2926 2927 2927 2928 2930 2932 2934 2935 2936 2937 2938 2939 2941 2942 2943 2944 2946 2949 2952 2953 2955 2958 2961 2963 2966 2968 2969 2971 2971 2972 2973 2975 2977 2980 2982 2984 2986 2987 2989 2991 2992 2992 2992 2993 2993
2955 2953 2950 2948 2945 2943 2941 2939 2938 2937 2936 2934 2933 2932 2931 2930 2929 2928 2927 2927 2927 2927 2926 2925 2923 2922 2921 2921 2921 2921 2922 2922 2921 2921 2919 2918 2916 2915 2915 2915 2916 2918 2919 2920 2921 2923 2925 2926 2928 2928 2929 2931 2933 2933 2935 2936 2938 2940 2942 2943 2946 2948 2951 2954 2956 2958 2960 2962 2963 2964 2966 2968 2970 2972 2975 2977 2979 2980 2982 2983 2985 2985 2986 2987 2987
2948 2945 2943 2941 2938 2937 2935 2933 2932 2931 2929 2927 2926 2925 2924 2922 2921 2919 2918 2917 2916 2917 2917 2917 2916 2915 2913 2911 2911 2911 2912 2913 2913 2912 2911 2909 2908 2906 2906 2906 2906 2908 2910 2911 2912 2914 2915 2917 2918 2920 2921 2923 2923 2924 2926 2928 2929 2930 2931 2932 2934 2937 2940 2943 2946 2948 2951 2953 2953 2954 2957 2960 2962 2965 2968 2970 2972 2972 2972 2974 2976 2977 2979 2981 2980
2941 2939 2937 2934 2932 2930 2929 2927 2926 2924 2923 2921 2918 2917 2916 2914 2913 2912 2910 2908 2907 2906 2906 2906 2907 2906 2905 2903 2901 2900 2900 2902 2902 2902 2901 2900 2899 2897 2896 2896 2897 2898 2899 2901 2902 2904 2906 2906 2907 2910 2913 2913 2914 2916 2917 2919 2920 2920 2920 2921 2924 2927 2929 2931 2935 2937 2939 2941 2942 2945 2949 2952 2954 2958 2960 2961 2962 2963 2964 2966 2968 2970 2972 2973 2972
2935 2933 2930 2928 2926 2924 2922 2920 2918 2916 2915 2913 2911 2910 2908 2906 2904 2903 2901 2899 2898 2897 2896 2895 2895 2895 2895 2894 2892 2890 2891 2891 2891 2890 2890 2890 2889 2887 2886 2886 2887 2887 2889 2891 2892 2894 2896 2896 2897 2900 2902 2904 2906 2907 2908 2909 2909 2909 2910 2912 2915 2918 2919 2921 2925 2926 2928 2931 2933 2937 2940 2943 2946 2948 2950 2951 2953 2954 2955 2958 2960 2961 2963 2963 2964
2930 2927 2924 2922 2920 2917 2915 2913 2910 2908 2906 2905 2903 2901 2899 2897 2896 2894 2891 2889 2888 2887 2886 2885 2884 2884 2884 2884 2881 2880 2881 2881 2880 2880 2879 2878 2878 2877 2876 2876 2876 2876 2878 2880 2881 2883 2885 2886 2887 2889 2891 2893 2896 2898 2898 2899 2898 2898 2900 2903 2905 2907 2909 2913 2916 2917 2919 2922 2925 2928 2931 2934 2936 2938 2940 2942 2943 2944 2946 2948 2950 2951 2953 2955 2956
2923 2920 2918 2915 2912 2910 2907 2905 2902 2899 2897 2895 2893 2891 2889 2888 2886 2885 2881 2879 2877 2876 2874 2874 2874 2873 2873 2873 2872 2869 2870 2871 2870 2869 2869 2868 2867 2866 2865 2865 2865 2866 2868 2869 2870 2871 2874 2876 2877 2879 2880 2882 2884 2886 2887 2887 2886 2887 2891 2894 2895 2896 2900 2904 2905 2906 2909 2912 2914 2917 2920 2922 2925 2927 2929 2931 2932 2934 2936 2939 2941 2943 2945 2947 2949
2917 2913 2911 2908 2905 2902 2899 2896 2893 2890 2887 2885 2882 2880 2878 2876 2875 2874 2871 2868 2867 2865 2862 2860 2861 2861 2861 2861 2861 2859 2858 2860 2861 2859 2859 2859 2858 2856 2854 2854 2853 2855 2857 2859 2859 2860 2863 2865 2866 2868 2870 2872 2873 2874 2875 2875 2874 2875 2880 2883 2884 2885 2891 2894 2894 2895 2898 2900 2902 2905 2908 2911 2914 2917 2918 2920 2921 2924 2927 2931 2934 2936 2937 2938 2940
2911 2907 2904 2900 2897 2894 2891 2887 2884 2880 2877 2874 2871 2868 2865 2863 2861 2859 2857 2855 2854 2853 2851 2848 2847 2848 2848 2848 2849 2848 2846 2848 2850 2849 2848 2849 2849 2848 2846 2843 2842 2843 2845 2847 2848 2850 2852 2854 2855 2857 2860 2862 2862 2862 2863 2864 2863 2865 2868 2870 2871 2875 2882 2884 2883 2884 2886 2888 2891 2893 2896 2899 2903 2905 2908 2910 2912 2915 2919 2922 2925 2927 2928 2930 2932
2904 2900 2897 2893 2889 2886 2882 2878 2874 2871 2867 2863 2859 2856 2853 2850 2847 2845 2842 2840 2838 2837 2837 2835 2832 2832 2834 2834 2834 2835 2834 2835 2837 2839 2838 2838 2838 2838 2837 2834 2833 2833 2834 2835 2836 2838 2841 2843 2844 2847 2850 2850 2850 2850 2852 2852 2853 2854 2856 2857 2861 2868 2872 2872 2872 2875 2876 2878 2882 2884 2886 2890 2893 2896 2898 2900 2902 2906 2910 2912 2914 2917 2920 2922 2924
2897 2893 2889 2885 2881 2878 2873 2869 2864 2860 2856 2852 2848 2844 2842 2838 2834 2831 2828 2825 2822 2820 2820 2820 2817 2816 2818 2819 2819 2820 2821 2821 2822 2825 2826 2825 2826 2827 2826 2824 2824 2824 2824 2824 2824 2826 2829 2832 2834 2837 2839 2840 2840 2840 2840 2842 2843 2843 2844 2847 2853 2858 2859 2860 2863 2866 2866 2869 2872 2874 2876 2880 2883 2885 2888 2889 2892 2896 2899 2902 2905 2908 2912 2914 2916
2889 2885 2881 2877 2873 2869 2864 2860 2855 2850 2845 2841 2836 2832 2830 2826 2822 2818 2814 2811 2808 2806 2804 2804 2801 2799 2800 2803 2804 2805 2807 2807 2808 2810 2812 2812 2812 2813 2814 2814 2815 2815 2813 2812 2813 2815 2818 2821 2823 2825 2827 2829 2831 2831 2830 2831 2832 2833 2836 2840 2843 2845 2847 2849 2853 2854 2856 2858 2861 2862 2865 2869 2871 2874 2876 2878 2881 2885 2888 2892 2896 2901 2904 2907 2909
2881 2877 2873 2868 2863 2859 2854 2850 2845 2839 2835 2830 2824 2820 2817 2813 2809 2805 2801 2797 2793 2791 2790 2788 2785 2783 2783 2785 2787 2790 2793 2793 2794 2795 2797 2799 2799 2799 2801 2803 2805 2805 2803 2801 2803 2805 2807 2810 2812 2814 2815 2818 2821 2822 2821 2822 2822 2824 2828 2831 2831 2833 2836 2838 2840 2843 2846 2848 2850 2852 2855 2858 2860 2863 2865 2867 2870 2874 2879 2885 2890 2894 2897 2899 2900
2872 2868 2863 2858 2853 2848 2842 2838 2833 2829 2824 2818 2812 2807 2804 2799 2794 2790 2786 2781 2777 2774 2773 2772 2769 2767 2767 2768 2770 2775 2778 2779 2780 2781 2783 2785 2785 2786 2788 2790 2793 2794 2793 2792 2793 2795 2797 2800 2802 2803 2804 2807 2810 2812 2812 2812 2814 2816 2819 2819 2820 2823 2825 2825 2829 2833 2835 2838 2840 2842 2845 2848 2850 2852 2854 2857 2861 2867 2873 2879 2884 2887 2889 2890 2891
2863 2858 2852 2847 2841 2836 2830 2826 2822 2817 2812 2806 2800 2795 2790 2785 2780 2775 2769 2764 2759 2756 2754 2754 2752 2750 2750 2751 2754 2758 2762 2764 2766 2768 2770 2772 2772 2773 2775 2777 2781 2782 2782 2782 2784 2785 2788 2790 2792 2793 2793 2796 2800 2801 2802 2804 2806 2807 2808 2808 2809 2812 2814 2815 2819 2822 2824 2828 2832 2834 2836 2839 2841 2843 2846 2849 2855 2861 2866 2870 2874 2876 2878 2880 2883
2853 2848 2842 2836 2831 2825 2819 2814 2810 2805 2800 2794 2788 2783 2777 2770 2764 2759 2753 2748 2744 2740 2737 2736 2735 2734 2734 2735 2737 2741 2745 2748 2751 2755 2758 2759 2760 2761 2761 2763 2768 2771 2771 2772 2774 2776 2778 2780 2782 2783 2784 2786 2789 2792 2793 2795 2797 2798 2799 2799 2799 2802 2805 2807 2809 2812 2815 2820 2823 2825 2828 2830 2832 2835 2838 2842 2847 2852 2856 2860 2863 2866 2869 2872 2876
2843 2837 2832 2826 2820 2814 2808 2803 2798 2792 2787 2782 2776 2769 2763 2756 2750 2745 2740 2735 2732 2728 2724 2722 2720 2718 2718 2720 2722 2725 2729 2732 2736 2741 2745 2747 2748 2749 2749 2750 2755 2759 2760 2761 2765 2767 2769 2770 2771 2773 2775 2777 2780 2783 2785 2786 2787 2788 2790 2790 2790 2792 2796 2799 2801 2804 2808 2812 2814 2817 2820 2822 2823 2827 2830 2833 2837 2842 2845 2849 2853 2857 2861 2865 2868
2833 2827 2822 2816 2810 2804 2798 2792 2786 2780 2774 2768 2761 2755 2750 2744 2739 2735 2731 2726 2722 2718 2714 2710 2708 2705 2705 2706 2708 2710 2714 2718 2722 2727 2731 2734 2736 2738 2738 2739 2743 2748 2750 2752 2755 2758 2759 2760 2761 2763 2766 2768 2770 2774 2776 2778 2779 2780 2781 2782 2782 2784 2787 2790 2793 2796 2800 2803 2805 2807 2810 2811 2814 2818 2822 2825 2828 2832 2836 2840 2844 2849 2853 2857 2860
2825 2819 2813 2807 2800 2793 2786 2780 2773 2767 2760 2754 2749 2744 2739 2734 2729 2725 2722 2718 2713 2708 2704 2700 2697 2695 2694 2695 2696 2697 2700 2706 2710 2713 2716 2720 2723 2726 2728 2729 2732 2736 2740 2743 2745 2747 2748 2750 2751 2753 2756 2759 2762 2766 2768 2770 2771 2772 2773 2774 2774 2775 2777 2780 2784 2788 2791 2793 2795 2797 2799 2802 2805 2809 2812 2816 2819 2823 2827 2831 2836 2841 2845 2849 2853
2817 2810 2804 2797 2789 2781 2773 2767 2761 2754 2748 2743 2739 2735 2731 2727 2722 2718 2714 2710 2706 2702 2697 2692 2689 2686 2684 2684 2686 2687 2689 2693 2697 2700 2703 2707 2711 2714 2717 2719 2721 2725 2731 2734 2735 2735 2737 2740 2743 2745 2748 2751 2754 2758 2761 2762 2763 2764 2765 2766 2766 2767 2769 2771 2776 2781 2784 2785 2786 2788 2791 2793 2797 2800 2803 2807 2811 2815 2819 2824 2829 2834 2838 2842 2846
2808 2801 2793 2786 2778 2769 2761 2755 2749 2744 2739 2735 2731 2726 2723 2719 2716 2711 2707 2703 2699 2696 2691 2687 2684 2681 2678 2676 2676 2678 2680 2683 2685 2688 2691 2695 2699 2703 2707 2710 2712 2715 2721 2724 2724 2725 2728 2731 2734 2738 2741 2743 2747 2751 2753 2754 2755 2756 2757 2758 2759 2760 2761 2763 2768 2773 2775 2777 2779 2780 2783 2786 2790 2793 2796 2799 2803 2808 2813 2818 2823 2827 2831 2835 2838
2800 2792 2785 2776 2768 2759 2752 2745 2741 2736 2732 2729 2725 2720 2715 2711 2708 2705 2702 2698 2693 2690 2686 2682 2679 2676 2673 2671 2669 2669 2671 2673 2675 2677 2680 2684 2688 2692 2696 2700 2702 2706 2711 2714 2714 2717 2720 2723 2726 2731 2734 2736 2740 2744 2746 2747 2748 2749 2750 2751 2752 2754 2755 2756 2760 2764 2767 2770 2772 2774 2776 2780 2783 2787 2790 2794 2799 2804 2809 2813 2817 2820 2823 2827 2831
2794 2786 2778 2769 2760 2751 2744 2738 2734 2731 2727 2724 2719 2715 2710 2705 2701 2697 2695 2692 2689 2685 2682 2678 2674 2671 2668 2666 2664 2663 2663 2665 2667 2669 2671 2675 2679 2683 2687 2690 2693 2697 2702 2704 2705 2709 2713 2715 2718 2723 2727 2729 2733 2737 2738 2740 2741 2742 2743 2745 2746 2747 2748 2750 2753 2757 2760 2763 2767 2769 2772 2775 2779 2783 2787 2790 2795 2799 2802 2806 2809 2813 2817 2821 2824
2790 2782 2774 2763 2752 2743 2737 2733 2729 2726 2723 2719 2715 2710 2706 2701 2697 2692 2689 2686 2683 2681 2678 2675 2670 2666 2663 2661 2659 2658 2658 2659 2660 2662 2664 2668 2672 2676 2679 2682 2685 2689 2693 2695 2698 2702 2706 2709 2712 2716 2720 2723 2727 2730 2732 2733 2735 2736 2737 2738 2739 2741 2742 2744 2747 2750 2754 2758 2762 2765 2768 2771 2774 2777 2781 2784 2788 2792 2795 2799 2803 2806 2810 2814 2818
2786 2778 2769 2757 2746 2738 2733 2729 2725 2722 2718 2715 2711 2707 2702 2698 2694 2689 2685 2681 2677 2674 2672 2670 2667 2663 2659 2656 2655 2655 2655 2655 2656 2658 2659 2661 2665 2669 2672 2674 2677 2682 2686 2688 2691 2696 2700 2703 2706 2710 2714 2717 2720 2723 2726 2727 2728 2729 2731 2732 2733 2735 2737 2739 2742 2746 2750 2755 2758 2760 2763 2766 2769 2772 2776 2779 2783 2786 2790 2793 2797 2801 2805 2809 2813
2782 2773 2763 2752 2742 2735 2730 2726 2722 2719 2715 2711 2707 2703 2699 2695 2691 2687 2682 2678 2674 2670 2667 2665 2663 2660 2657 2654 2652 2652 2652 2652 2653 2655 2656 2658 2661 2663 2666 2668 2671 2676 2679 2682 2686 2690 2694 2697 2700 2704 2708 2712 2715 2718 2720 2721 2722 2723 2725 2727 2728 2730 2732 2735 2738 2743 2747 2750 2753 2755 2758 2761 2764 2767 2771 2775 2778 2782 2786 2789 2793 2796 2800 2803 2806
2778 2769 2757 2747 2739 2732 2727 2723 2720 2716 2712 2708 2704 2699 2696 2693 2689 2685 2681 2677 2673 2669 2666 2662 2659 2657 2655 2653 2650 2650 2650 2650 2651 2652 2654 2656 2657 2659 2661 2664 2668 2671 2674 2677 2682 2686 2689 2692 2695 2699 2703 2706 2710 2712 2714 2716 2717 2719 2720 2722 2724 2726 2728 2732 2735 2739 2742 2745 2748 2750 2753 2756 2759 2762 2766 2770 2773 2777 2781 2784 2787 2790 2793 2796 2800
2775 2765 2754 2744 2735 2728 2723 2719 2716 2713 2710 2706 2701 2697 2694 2690 2687 2683 2679 2675 2671 2668 2665 2661 2658 2655 2653 2652 2650 2649 2649 2649 2650 2650 2652 2654 2655 2656 2658 2661 2664 2667 2670 2674 2678 2681 2684 2687 2690 2694 2698 2701 2704 2707 2709 2711 2713 2714 2716 2717 2720 2722 2725 2728 2730 2733 2736 2739 2742 2745 2748 2751 2755 2758 2762 2766 2770 2774 2777 2779 2782 2784 2787 2791 2794
2773 2764 2753 2743 2734 2727 2722 2717 2714 2711 2708 2704 2700 2696 2692 2688 2685 2682 2678 2674 2671 2668 2665 2662 2658 2655 2653 2652 2651 2649 2648 2648 2648 2648 2649 2651 2653 2654 2656 2659 2662 2665 2668 2671 2674 2677 2680 2683 2686 2690 2693 2696 2700 2702 2704 2706 2708 2710 2711 2713 2715 2718 2721 2723 2725 2727 2730 2734 2737 2741 2744 2748 2752 2755 2759 2763 2766 2770 2772 2775 2777 2780 2783 2787 2790
2770 2761 2752 2743 2735 2728 2722 2717 2713 2710 2706 2703 2699 2695 2690 2687 2684 2680 2677 2673 2670 2668 2665 2662 2659 2656 2653 2652 2651 2650 2648 2648 2647 2647 2647 2649 2650 2652 2654 2657 2660 2663 2666 2668 2671 2673 2676 2679 2682 2685 2689 2692 2695 2698 2700 2702 2704 2706 2707 2709 2711 2714 2716 2718 2721 2724 2727 2730 2734 2737 2741 2744 2749 2752 2756 2759 2762 2765 2768 2771 2773 2776 2780 2783 2786
2767 2759 2752 2744 2735 2728 2722 2717 2712 2709 2705 2701 2697 2693 2689 2686 2683 2680 2676 2673 2670 2668 2665 2662 2659 2657 2655 2653 2651 2650 2649 2648 2647 2647 2647 2648 2649 2650 2653 2656 2659 2661 2663 2666 2668 2670 2672 2675 2678 2682 2685 2689 2691 2693 2695 2698 2700 2702 2704 2705 2708 2710 2711 2714 2717 2720 2723 2726 2729 2733 2737 2741 2745 2749 2752 2755 2758 2761 2764 2766 2769 2772 2775 2778 2781
2766 2758 2751 2744 2736 2729 2723 2718 2713 2709 2705 2701 2697 2693 2689 2685 2682 2679 2676 2673 2669 2667 2666 2664 2661 2658 2656 2654 2653 2651 2650 2648 2647 2647 2647 2648 2648 2650 2652 2655 2657 2660 2661 2663 2666 2668 2670 2672 2675 2678 2682 2685 2687 2689 2692 2695 2698 2699 2700 2702 2704 2706 2708 2710 2713 2716 2719 2723 2726 2729 2733 2737 2741 2745 2748 2752 2754 2757 2760 2762 2765 2768 2771 2774 2777
2765 2758 2751 2744 2737 2730 2723 2718 2713 2708 2704 2700 2696 2692 2688 2685 2682 2679 2676 2673 2670 2668 2666 2664 2662 2660 2658 2656 2654 2653 2651 2650 2648 2648 2648 2649 2649 2650 2652 2654 2656 2658 2660 2661 2664 2666 2668 2670 2672 2675 2679 2681 2683 2686 2688 2692 2694 2696 2697 2699 2701 2703 2704 2707 2710 2712 2716 2719 2723 2726 2730 2733 2737 2741 2745 2748 2751 2754 2757 2759 2762 2764 2767 2770 2772
2763 2758 2752 2745 2738 2732 2725 2719 2713 2708 2703 2699 2695 2692 2688 2685 2682 2679 2676 2674 2671 2669 2666 2664 2663 2661 2659 2657 2656 2654 2653 2652 2651 2650 2650 2650 2650 2651 2652 2653 2655 2657 2659 2661 2663 2665 2667 2668 2670 2673 2676 2678 2680 2683 2686 2688 2691 2693 2694 2696 2698 2700 2702 2704 2707 2710 2713 2717 2721 2724 2727 2730 2734 2738 2742 2746 2749 2752 2754 2756 2758 2761 2763 2766 2768
2762 2757 2752 2745 2739 2733 2727 2721 2715 2709 2704 2700 2696 2692 2689 2685 2682 2679 2676 2674 2672 2669 2667 2665 2663 2661 2660 2658 2657 2656 2655 2654 2653 2653 2652 2652 2652 2652 2653 2654 2655 2656 2658 2660 2662 2664 2665 2666 2668 2670 2673 2676 2678 2681 2683 2686 2688 2690 2692 2694 2696 2699 2701 2703 2705 2709 2712 2716 2720 2722 2725 2728 2731 2735 2740 2743 2747 2749 2751 2753 2755 2757 2759 2762 2765
2761 2756 2751 2745 2740 2734 2729 2723 2717 2711 2706 2701 2697 2693 2690 2686 2683 2680 2677 2674 2672 2670 2667 2665 2663 2661 2660 2659 2658 2657 2656 2655 2655 2654 2654 2654 2654 2654 2654 2655 2656 2657 2658 2660 2661 2663 2664 2665 2667 2669 2671 2674 2676 2679 2681 2683 2686 2688 2690 2691 2694 2696 2699 2702 2704 2707 2710 2714 2718 2721 2724 2727 2730 2734 2738 2741 2744 2746 2748 2750 2752 2754 2756 2759 2761
2761 2756 2750 2745 2740 2735 2729 2724 2719 2713 2708 2703 2699 2695 2691 2688 2685 2682 2679 2676 2673 2671 2668 2666 2664 2662 2660 2659 2658 2657 2657 2656 2655 2655 2655 2654 2654 2655 2655 2655 2656 2657 2658 2660 2661 2662 2663 2664 2666 2668 2670 2672 2675 2677 2679 2681 2684 2686 2688 2690 2692 2694 2697 2700 2703 2706 2709 2712 2716 2720 2723 2726 2729 2732 2735 2738 2741 2743 2746 2747 2749 2752 2754 2756 2759
2760 2755 2750 2745 2741 2736 2731 2726 2721 2716 2711 2706 2702 2698 2694 2690 2687 2684 2681 2678 2675 2672 2670 2668 2665 2663 2662 2660 2659 2657 2656 2656 2655 2655 2655 2654 2654 2654 2655 2655 2656 2657 2658 2659 2660 2661 2662 2664 2666 2667 2669 2671 2673 2676 2678 2680 2682 2684 2687 2689 2691 2693 2696 2698 2700 2703 2707 2710 2714 2717 2720 2724 2727 2730 2733 2736 2738 2740 2742 2744 2747 2749 2751 2754 2756
2759 2755 2750 2746 2741 2736 2732 2727 2722 2718 2713 2709 2705 2701 2697 2693 2690 2687 2683 2680 2677 2675 2672 2670 2667 2665 2663 2662 2660 2659 2658 2656 2655 2655 2655 2654 2655 2655 2655 2656 2656 2657 2657 2658 2659 2661 2662 2664 2665 2667 2668 2670 2672 2674 2677 2679 2681 2683 2686 2688 2690 2692 2694 2696 2699 2702 2705 2708 2711 2715 2718 2721 2725 2728 2731 2734 2736 2738 2740 2742 2744 2747 2749 2751 2753
2757 2754 2750 2746 2741 2737 2733 2728 2724 2719 2715 2711 2707 2704 2700 2696 2693 2690 2686 2683 2680 2677 2675 2672 2670 2668 2666 2664 2662 2661 2660 2659 2658 2657 2656 2656 2656 2656 2656 2656 2657 2658 2658 2659 2660 2661 2662 2663 2664 2666 2667 2669 2671 2674 2676 2679 2681 2684 2686 2689 2691 2693 2695 2697 2699 2702 2705 2708 2711 2715 2718 2721 2724 2727 2729 2732 2734 2736 2738 2740 2742 2744 2746 2748 2750
2756 2753 2749 2746 2742 2738 2734 2730 2726 2722 2718 2714 2710 2707 2703 2699 2696 2693 2689 2686 2683 2680 2678 2675 2673 2671 2669 2667 2665 2664 2663 2662 2661 2660 2659 2659 2658 2658 2658 2658 2659 2659 2660 2661 2662 2663 2664 2665 2666 2667 2669 2671 2673 2675 2678 2680 2682 2685 2687 2689 2691 2694 2696 2698 2700 2703 2706 2709 2712 2714 2717 2720 2723 2725 2728 2730 2732 2734 2736 2738 2740 2742 2743 2745 2746